Location: Barrio Ca�n Bros
(41.4969°N, 1.9218°E)
Time: 01:58:35
(UTC+00:00)

Daily predictions for brighter satellites

Satellite Brightness Start Highest point End
(mag) Time Altitude Azimuth Time Altitude Azimuth Time Altitude Azimuth
Cosmos 2333 Rocket 4.4 03:32:04 20° ENE 03:32:04 20° ENE 03:34:08 10° NE
Cosmos 2219 Rocket 4.4 03:33:24 21° ENE 03:33:24 21° ENE 03:35:44 10° NE
COSMOS 2428 4.3 03:50:00 31° E 03:50:00 31° E 03:54:10 10° NE
Cosmos 2360 Rocket 4.5 04:05:03 14° NNE 04:05:03 14° NNE 04:05:49 10° NNE
ADEOS 4.4 04:12:30 10° NNE 04:17:32 47° E 04:17:44 47° ESE
Meteor 1-24 Rocket 4.5 04:27:40 43° SSE 04:27:40 43° SSE 04:31:27 10° SSE
Cosmos 1461 4.0 04:35:33 48° ESE 04:35:33 48° ESE 04:40:02 10° NE
Haruka 4.4 04:38:49 31° S 04:39:37 33° SSE 04:49:01 10° ESE
CZ-4B R/B 4.4 04:37:39 10° SE 04:37:54 12° SE 04:37:54 12° SE
Cosmos 1763 Rocket 3.8 04:40:44 46° SSE 04:42:05 65° ESE 04:47:15 10° NNE
CZ-2C R/B 3.7 04:42:34 16° SSE 04:42:34 16° SSE 04:45:01 10° ESE
Cosmos 1892 Rocket 4.2 04:43:43 52° ENE 04:43:49 52° E 04:48:05 10° SSE
CZ-3 Stage 3 3.8 04:48:53 13° SSE 04:48:53 13° SSE 04:49:30 10° SSE
BREEZE-M DEB (TANK) 4.2 04:48:26 44° NNW 04:48:56 45° N 05:00:34 10° ENE
Cosmos 1898 Rocket 4.0 04:48:06 33° N 04:50:13 57° ENE 04:55:18 10° SSE
Cosmos 921 Rocket 3.6 04:53:25 50° NE 04:53:25 50° NE 04:56:39 10° NNE
Atlas Centaur 2 4.3 04:48:41 20° SSW 04:52:41 31° SSE 04:59:52 10° ESE
NOSS 0 Rocket 4.5 04:46:59 10° S 04:53:01 57° ESE 04:59:04 10° NNE
COSMO-SKYMED 1 2.8 04:54:03 10° SSE 04:58:20 67° ENE 04:59:33 44° N
SJ 16-02 3.2 05:02:52 19° S 05:02:52 19° S 05:04:09 10° S
Cosmos 2278 Rocket 3.0 04:56:36 17° N 05:00:46 49° ENE 05:06:15 10° SE
METEOR-M 4.4 04:58:37 10° N 05:02:50 48° NNW 05:02:50 48° NNW
CZ-4B R/B 3.3 05:00:20 10° NNE 05:03:52 54° E 05:07:29 10° S
Cosmos 1891 Rocket 4.4 04:59:28 10° S 05:05:42 88° E 05:11:51 10° N
Cosmos 1464 Rocket 3.9 05:03:13 10° S 05:09:20 86° E 05:15:31 10° N
Cosmos 2237 Rocket 2.8 05:04:04 10° S 05:09:34 57° ESE 05:15:09 10° NNE
Lacrosse 5 rocket 3.0 05:11:53 21° N 05:12:49 23° NNE 05:15:51 10° E
Cosmos 2333 Rocket 2.8 05:14:07 37° NW 05:14:07 37° NW 05:18:39 10° N
Lacrosse 4 Rocket 4.2 05:10:38 10° SSE 05:13:38 19° ESE 05:16:41 10° ENE
Cosmos 1072 Rocket 4.4 05:07:58 10° S 05:14:08 80° W 05:20:28 10° N
Cosmos 2219 Rocket 2.5 05:15:11 41° NW 05:15:11 41° NW 05:20:06 10° NNE
Cosmos 1544 Rocket 3.8 05:11:26 10° S 05:15:42 68° E 05:20:00 10° NNE
Cosmos 468 Rocket 4.0 05:14:27 44° WSW 05:15:49 59° WNW 05:21:04 10° NNE
H-2A R/B 3.2 05:13:34 10° NNE 05:17:13 58° E 05:20:53 10° S
SKYMED 3 4.4 05:18:01 10° S 05:22:19 66° WSW 05:23:49 39° NNW
Cosmos 1937 Rocket 3.5 05:20:43 16° NNW 05:24:59 84° ENE 05:30:13 10° SSE
BREEZE-M DEB (TANK) 3.5 05:20:11 26° WNW 05:25:24 72° NNE 05:28:55 10° ESE
Okean 1-7 Rocket 3.5 05:23:32 13° N 05:27:36 79° W 05:32:04 10° S
GEOS 3 Rocket 3.6 05:22:36 10° SE 05:27:57 90° NE 05:31:32 22° NW
Cosmos 1400 Rocket 4.0 05:25:17 10° SSE 05:29:09 44° E 05:33:05 10° NNE
GPS 2-04 Rocket1 4.5 05:29:04 20° SSW 05:29:37 20° SSW 05:32:42 10° SSE
Envisat 3.5 05:25:48 10° NNE 05:30:51 60° E 05:35:51 10° S
FALCON 9 DEB 2.9 05:31:29 67° WSW 05:31:52 81° NW 05:35:17 10° NE
COSMOS 2428 3.2 05:32:07 33° W 05:33:20 37° WNW 05:38:35 10° N
SL-4 R/B 3.7 05:31:05 10° SSW 05:34:20 29° SE 05:37:50 10° ENE
Cosmos 1626 Rocket 3.9 05:31:53 10° N 05:36:21 67° E 05:40:46 10° SSE
PSLV R/B 4.4 05:35:27 10° NNE 05:39:22 60° E 05:43:21 10° S
YAOGAN 6 2.8 05:36:41 10° NNE 05:40:24 73° ESE 05:44:04 10° S
Cosmos 1980 3.6 05:36:44 10° SSW 05:42:23 73° WNW 05:48:04 10° NNE
Cosmos 1455 Rocket 3.5 05:38:34 10° SW 05:42:38 37° WNW 05:46:42 10° N
Cosmos 2360 Rocket 4.2 05:46:50 10° NNW 05:46:50 10° NNW 05:47:04 10° NNW
SKYMED 2 4.1 05:42:27 10° SSW 05:46:25 35° W 05:48:07 25° NW
Cosmos 2034 Rocket 4.0 05:40:25 10° SSW 05:46:45 70° W 05:53:08 10° N
Cosmos 44 Rocket 3.4 05:47:02 17° NW 05:51:06 78° WSW 05:56:17 10° SSE
SJ-7 4.3 05:48:10 10° N 05:52:20 75° WNW 05:56:25 10° SSW
ATLAS CENTAUR R/B 2.6 05:49:58 10° S 05:53:26 39° ESE 05:56:52 10° NE
H-2A R/B 3.7 05:49:26 10° NNE 05:53:48 50° E 05:58:10 10° S
NOSS 3-2 (A) 4.2 05:48:55 10° SSW 05:54:13 51° ESE 06:00:13 10° NE
Nadezhda 4 Rocket 3.9 05:50:24 10° NNW 05:56:26 63° W 06:02:27 10° S
Cosmos 540 Rocket 3.6 05:51:37 10° SW 05:56:34 51° WNW 06:01:35 10° N
ERS-2 2.9 05:53:31 10° SSW 05:56:46 31° W 05:58:04 24° WNW
MOS 1 Rocket 3.7 05:52:03 10° S 05:56:54 44° W 06:01:30 10° NNW
Cosmos 1953 2.7 05:53:27 10° SSW 05:57:13 40° WNW 06:00:59 10° N
BREEZE-M DEB (TANK) 2.6 05:56:25 18° WSW 05:58:36 86° NNW 06:07:02 10° ENE
Meteor PRIRODA 4.3 05:55:50 10° N 05:59:01 30° WNW 06:02:12 10° SW
deb Chang Zheng 4 4.3 05:55:26 10° N 05:59:05 29° WNW 06:02:44 10° SW
CZ-4B DEB 4.4 05:54:32 10° NNE 06:00:08 81° ESE 06:05:41 10° SSW
Cosmos 1634 Rocket 4.3 05:56:53 10° S 06:03:00 73° E 06:09:10 10° NNE
Cosmos 1908 3.3 05:59:26 10° SSW 06:03:08 52° W 06:06:53 10° N
Okean O Rocket 3.0 05:59:35 10° NNE 06:03:45 42° E 06:07:52 10° S
USA 307 3.9 06:05:45 10° SSW 06:09:48 47° SE 06:13:52 10° ENE
Cosmos 1689 Rocket 3.1 06:08:00 10° SSW 06:10:30 26° W 06:11:43 19° WNW
Meteor 1-16 Rocket 4.4 06:05:55 10° SSW 06:11:39 54° WNW 06:17:28 10° N
OAO 2 Rocket 4.3 06:07:29 12° WSW 06:11:39 37° S 06:16:11 10° ESE
SMAP 3.2 06:09:25 10° NNE 06:14:05 79° ESE 06:18:44 10° S
Cosmos 1461 4.3 06:12:00 15° W 06:14:48 24° NW 06:18:41 10° N
Spot 2 3.8 06:11:40 10° N 06:15:42 75° WNW 06:19:44 10° SSW
AQUARIUS 4.5 06:11:14 10° NNE 06:15:45 72° E 06:20:13 10° S
SL-8 R/B 3.8 06:12:38 16° WNW 06:16:32 70° SSW 06:21:19 10° SE
Cosmos 1602 Rocket 3.6 06:12:12 10° NNW 06:16:35 60° W 06:20:59 10° S
Cosmos 1315 Rocket 3.7 06:13:31 10° S 06:17:19 51° E 06:21:07 10° NNE
USA 308 3.6 06:14:22 10° SSW 06:18:30 56° SE 06:22:38 10° ENE
USA 305 3.5 06:14:55 10° SW 06:19:05 60° SE 06:23:16 10° ENE
Cosmos 2150 Rocket 4.4 06:14:11 10° NNW 06:19:31 68° ENE 06:24:54 10° SSE
CZ-2C R/B 2.8 06:18:04 10° SW 06:21:38 29° S 06:24:59 10° ESE
Cosmos 841 Rocket 4.3 06:25:41 10° WSW 06:30:06 28° WNW 06:34:33 10° N
USA 306 3.1 06:26:40 10° SW 06:30:54 75° SE 06:35:08 10° NE
CENTAUR R/B 3.1 06:26:58 10° SSW 06:32:34 62° ESE 06:39:13 10° NE
Cosmos 2026 Rocket 4.0 06:27:14 10° NNW 06:33:33 71° W 06:39:52 10° S
Cosmos 1825 Rocket 3.7 06:29:40 10° N 06:34:09 82° E 06:38:37 10° S
COSMO-SKYMED 1 4.5 06:33:56 10° WSW 06:34:56 11° W 06:35:56 10° WNW
Meteor 1-11 4.2 06:29:41 10° NNW 06:35:15 72° W 06:40:48 10° S
Meteor 2-19 Rocket 4.5 06:29:18 10° N 06:35:29 86° W 06:41:34 10° S
Cosmos 1340 3.6 06:32:59 10° NNW 06:36:14 28° W 06:39:29 10° SSW
Cosmos 2369 Rocket 3.8 06:34:31 10° N 06:39:28 31° NE 06:44:22 10° ESE
Cosmos 1703 4.3 06:36:16 10° NW 06:39:28 25° W 06:42:39 10° SW
Radarsat Rocket 4.5 06:32:40 10° NNE 06:40:32 78° WNW 06:47:23 10° SSW
SL-16 R/B 2.2 06:35:18 10° SSW 06:40:56 74° WNW 06:46:37 10° NNE
Atlas Centaur 2 4.2 06:34:12 10° WSW 06:41:40 38° S 06:49:19 10° ESE
Cosmos 2098 Rocket 3.7 06:36:07 10° N 06:42:20 73° W 06:47:14 10° S
Cosmos 2298 Rocket 4.1 06:38:17 10° NNW 06:43:37 69° WSW 06:48:53 10° S
CZ-4B R/B 3.3 06:38:36 10° N 06:44:16 75° WNW 06:49:50 10° SSW
Cosmos 2278 Rocket 3.3 06:40:04 10° NW 06:44:29 24° WSW 06:48:52 10° SSW
USA 238 DEB 3.7 06:39:19 10° SW 06:45:52 84° NW 06:52:46 10° NE
USA 238 3.7 06:39:27 10° SW 06:46:00 84° NW 06:52:52 10° NE
Cosmos 1346 Rocket 2.8 06:42:09 10° NNW 06:46:05 61° W 06:49:59 10° S
